This demonstration page uses our WeatherBlox Daily Observations layout. Learn more.

Left ArrowRight Arrow

39.08367, -84.50855

Hourly Observations for April 20, 2022

Temp ( °F °C ) Dew Point ( °F °C ) Humidity (%) Winds ( mph kmh ) Pressure ( in mb ) Visibility ( mi km ) Precip ( " mm )
12:53 am 00:53 Clear 37 2.8 34 1.1 89 89 Calm 30.31 1026 10 16 0.00 0.00
1:53 am 01:53 Clear 35 1.7 33 0.6 93 93 NE 3 6 30.32 1027 10 16 0.00 0.00
2:53 am 02:53 Clear 33 0.6 33 0.6 100 100 Calm 30.33 1027 10 16 0.00 0.00
3:53 am 03:53 Mostly Clear 34 1.1 33 0.6 97 97 Calm 30.33 1027 10 16 0.00 0.00
4:53 am 04:53 Mostly Cloudy 35 1.7 34 1.1 96 96 Calm 30.33 1027 10 16 0.00 0.00
5:53 am 05:53 Partly Cloudy 35 1.7 34 1.1 96 96 Calm 30.32 1027 10 16 0.00 0.00
6:53 am 06:53 Mostly Clear 34 1.1 33 0.6 97 97 Calm 30.34 1028 10 16 0.00 0.00
7:53 am 07:53 Mostly Cloudy 37 2.8 35 1.7 93 93 Calm 30.36 1028 10 16 0.00 0.00
8:53 am 08:53 Cloudy 42 5.6 34 1.1 73 73 Calm 30.36 1028 10 16 0.00 0.00
9:53 am 09:53 Mostly Cloudy 49 9.4 32 0 52 52 SSE 9 15 30.34 1027 10 16 0.00 0.00
10:53 am 10:53 Mostly Cloudy 51 10.6 32 0 48 48 SE 14 22 30.32 1027 10 16 0.00 0.00
11:53 am 11:53 Cloudy 54 12.2 35 1.7 49 49 SSE 6 9 30.34 1027 10 16 0.00 0.00
12:53 pm 12:53 Cloudy 56 13.3 34 1.1 44 44 SSE 9 15 30.32 1027 10 16 0.00 0.00
1:53 pm 13:53 Mostly Sunny 60 15.6 35 1.7 39 39 S 8 13 30.29 1026 10 16 0.00 0.00
2:53 pm 14:53 Partly Cloudy 62 16.7 34 1.1 35 35 E 8 13 30.26 1025 10 16 0.00 0.00
3:53 pm 15:53 Sunny 64 17.8 33 0.6 32 32 SE 15 24 30.20 1023 10 16 0.00 0.00
4:53 pm 16:53 Sunny 66 18.9 32 0 28 28 SSE 9 15 30.19 1022 10 16 0.00 0.00
5:53 pm 17:53 Sunny 66 18.9 32 0 28 28 SE 10 17 30.17 1022 10 16 0.00 0.00
6:53 pm 18:53 Sunny 65 18.3 30 -1.1 27 27 SE 7 11 30.14 1021 10 16 0.00 0.00
7:53 pm 19:53 Sunny 64 17.8 33 0.6 32 32 SE 3 6 30.14 1021 10 16 0.00 0.00
8:53 pm 20:53 Clear 61 16.1 35 1.7 38 38 ESE 3 6 30.12 1020 10 16 0.00 0.00
9:53 pm 21:53 Mostly Clear 60 15.6 36 2.2 41 41 SE 5 7 30.12 1020 10 16 0.00 0.00
10:53 pm 22:53 Cloudy 58 14.4 37 2.8 46 46 SW 7 11 30.12 1020 10 16 0.00 0.00
11:53 pm 23:53 Cloudy 60 15.6 36 2.2 41 41 SSW 9 15 30.12 1020 10 16 0.00 0.00

Powered by AerisWeather